Weather History for KMSL - January, 2014

Change the Weather History Date:

Tuesday, January 28, 2014

  Actual Average Record
Temperature  
Mean Temperature 18 °F 42 °F  
Max Temperature 22 °F 52 °F 76 °F (1975)
Min Temperature 14 °F 32 °F -6 °F (1940)
Degree Days  
Heating Degree Days 47 23  
Month to date heating degree days 809 670  
Since 1 July heating degree days 2068 1906  
Cooling Degree Days 0 0  
Month to date cooling degree days 0 0  
Year to date cooling degree days 0 0  
Moisture  
Dew Point 1 °F    
Average Humidity 44    
Maximum Humidity 51    
Minimum Humidity 36    
Precipitation  
Precipitation T in 0.16 in 1.93 in (1957)
Month to date precipitation 1.70 4.13  
Year to date precipitation 1.70 4.13  
Snow  
Snow T in - - ()
Month to date snowfall T  
Since 1 July snowfall T  
Snow Depth 0.00 in    
Sea Level Pressure  
Sea Level Pressure 30.38 in    
Wind  
Wind Speed 8 mph (North)    
Max Wind Speed 16 mph    
Max Gust Speed 24 mph    
Visibility 9 miles    
Events Snow    
T = Trace of Precipitation, MM = Missing Value Source: NWS Daily Summary

Daily Weather History Graph

Daily Weather History Graph

Search for Another Location

Airport or City:

Trip Planner

Search our weather history database for the weather conditions in past years. The results will help you decide how hot, cold, wet, or windy it might be!

Date:

Astronomy

Jan. 28, 2014 Rise Set
Actual Time 6:51 AM CST 5:15 PM CST
Civil Twilight 6:24 AM CST 5:42 PM CST
Nautical Twilight 5:54 AM CST 6:12 PM CST
Astronomical Twilight 5:24 AM CST 6:42 PM CST
Moon 4:31 AM CST (1/28) 3:06 PM CST (1/28)
Length of Visible Light 11h 17m
Length of Day
10h 24m
Waning Crescent, 7% of the Moon is Illuminated
Jan 28
Waning Crescent
Jan 30
New
Feb 6
First Quarter
Feb 14
Full
Feb 22
Last Quarter

Hourly Weather History & Observations

Time (CST) Temp. Windchill Dew Point Humidity Pressure Visibility Wind Dir Wind Speed Gust Speed Precip Events Conditions
12:53 AM 21.0 °F 9.3 °F -0.9 °F 38% 30.34 in 10.0 mi NNE 11.5 mph 19.6 mph N/A   Mostly Cloudy
1:53 AM 19.9 °F 8.6 °F -0.9 °F 40% 30.34 in 10.0 mi North 10.4 mph 20.7 mph N/A   Overcast
2:53 AM 19.9 °F 7.9 °F -2.0 °F 38% 30.35 in 10.0 mi NNE 11.5 mph 19.6 mph N/A   Overcast
3:53 AM 19.9 °F 7.9 °F -0.9 °F 40% 30.35 in 10.0 mi North 11.5 mph - N/A   Overcast
4:53 AM 19.0 °F 8.2 °F -0.9 °F 42% 30.35 in 10.0 mi North 9.2 mph 18.4 mph N/A   Overcast
5:53 AM 19.0 °F 8.2 °F -0.9 °F 42% 30.37 in 10.0 mi North 9.2 mph 18.4 mph N/A   Overcast
6:53 AM 18.0 °F 6.9 °F 3.9 °F 54% 30.38 in 7.0 mi North 9.2 mph - 0.00 in Snow Light Snow
7:10 AM 17.6 °F 8.2 °F 8.6 °F 68% 30.37 in 2.0 mi North 6.9 mph - 0.00 in Snow Light Snow
7:35 AM 17.6 °F 5.0 °F 6.8 °F 63% 30.37 in 4.0 mi NNE 11.5 mph - 0.00 in Snow Light Snow
7:53 AM 17.1 °F 5.8 °F 7.0 °F 65% 30.38 in 10.0 mi North 9.2 mph - 0.00 in   Overcast
8:53 AM 17.1 °F 5.8 °F 6.1 °F 62% 30.40 in 7.0 mi North 9.2 mph 17.3 mph 0.00 in Snow Light Snow
9:02 AM 17.6 °F 7.3 °F 6.8 °F 63% 30.39 in 9.0 mi North 8.1 mph - 0.00 in   Overcast
9:53 AM 17.1 °F 6.6 °F 3.9 °F 56% 30.43 in 10.0 mi North 8.1 mph - 0.00 in   Overcast
10:53 AM 18.0 °F 7.7 °F 6.1 °F 60% 30.42 in 4.0 mi North 8.1 mph - 0.00 in Snow Light Snow
11:53 AM 18.0 °F 6.9 °F 3.9 °F 54% 30.41 in 10.0 mi NNW 9.2 mph - 0.00 in   Overcast
12:53 PM 19.9 °F 11.1 °F 1.9 °F 46% 30.37 in 10.0 mi North 6.9 mph - N/A   Overcast
1:53 PM 21.0 °F 10.6 °F 1.0 °F 42% 30.36 in 10.0 mi North 9.2 mph - N/A   Overcast
2:53 PM 21.0 °F 9.3 °F -2.9 °F 35% 30.35 in 10.0 mi NNW 11.5 mph - N/A   Overcast
3:53 PM 21.0 °F 9.9 °F -2.9 °F 35% 30.35 in 10.0 mi NNW 10.4 mph - N/A   Overcast
4:53 PM 19.9 °F 9.3 °F -2.9 °F 37% 30.36 in 10.0 mi NNW 9.2 mph - N/A   Overcast
5:53 PM 18.0 °F 8.7 °F -2.9 °F 40% 30.36 in 10.0 mi North 6.9 mph - N/A   Clear
6:53 PM 17.1 °F 10.0 °F -2.9 °F 41% 30.38 in 10.0 mi North 4.6 mph - N/A   Clear
7:53 PM 16.0 °F 8.8 °F -2.9 °F 43% 30.41 in 10.0 mi NNW 4.6 mph - N/A   Clear
8:53 PM 16.0 °F 10.4 °F -2.9 °F 43% 30.43 in 10.0 mi NNW 3.5 mph - N/A   Clear
9:53 PM 15.1 °F 9.4 °F -2.0 °F 47% 30.43 in 10.0 mi NNW 3.5 mph - N/A   Clear
10:53 PM 14.0 °F 6.5 °F -2.9 °F 47% 30.43 in 10.0 mi North 4.6 mph - N/A   Clear
11:53 PM 14.0 °F 5.1 °F -2.9 °F 47% 30.44 in 10.0 mi North 5.8 mph - N/A   Clear